Location: LDNL
(36.4545°S, 141.6685°E)
Time: 12:36:14
(UTC+10:00)

Explorer 7 - Pass Details

Date: 20 August 2022
Orbit: 482 x 668 km, 50.3° (Epoch: 26 September)

Event Time Altitude Azimuth Distance (km) Brightness Sun altitude
Rises 16:16:16 0° 287° (WNW) 3,000 12.0 18.9°
Reaches altitude 10° 16:18:44 10° 279° (W) 2,101 11.2 18.5°
Maximum altitude 16:23:19 39° 210° (SSW) 1,020 8.4 17.7°
Drops below altitude 10° 16:27:53 10° 141° (SE) 2,104 9.3 16.9°
Sets 16:30:22 0° 132° (SE) 3,005 10.0 16.5°
